Powrót do katalogu

NOAA 17 DEB

AktywnyPO
NORAD 48179·DEBRIS·🇺🇸 United States

Wystrzelony Jun 24, 2002 z Vandenberg Space Force Base

Loading…

Następne Przeloty (najbliższe 24 godziny)

TLE

ŚwieżeSource: Space-Track

Epoka: Sep 14, 2026, 08:41 UTC

1 48179U 02032U   26257.36226784  .00001585  00000-0  39753-3 0  9995
2 48179  98.8236 307.4071 0038477 101.3085 259.2436 14.52401669288542

Śledź NOAA 17 DEB w czasie rzeczywistym z AllMySat

Download on the App Store